Miscellaneous Local Product
Issued by NWS North Platte, NE

Home | Current Version | Previous Version | Text Only | Print | Product List | Glossary On
Versions: 1 2 3 4 5 6 7 8 9 10 11 12 13 14 15 16 17 18 19 20 21 22 23 24 25 26 27 28 29 30 31 32 33 34 35 36 37 38 39 40 41 42 43 44 45 46 47 48 49 50
000
AXUS43 KLBF 270110
MISLBF


WESTERN AND NORTH CENTRAL NEBRASKA HOURLY WEATHER ROUNDUP
NATIONAL WEATHER SERVICE NORTH PLATTE NE
700 PM CST THU FEB 26 2015

***STATIONS NOT REPORTING VARIABLES SUCH AS SKY/WEATHER OR
PRESSURE ARE PROVIDED BY THE NEBRASKA DEPARTMENT OF
ROADS...RAWS...AND APRS NETWORKS...AND ARE NOT UNDER
NATIONAL WEATHER SERVICE QUALITY CONTROL***

...OBSERVATIONS IN AND NEAR THE EASTERN PANHANDLE OF NEBRASKA...

CITY           SKY/WX    TMP DP  RH WIND       PRES   REMARKS
PINE RIDGE     PTCLDY     6  -4  63 NE6       30.37R WCI  -4
CHADRON        CLEAR      7  -3  64 E5        30.37S WCI  -2
ALLIANCE       CLEAR      7   0  73 N7        30.31R WCI  -5
SIDNEY         CLOUDY    13   3  64 NE12      30.26R WCI  -1
WHITECLAY        N/A      8  -6  52 NE3         N/A
CRESCENT LAKE    N/A     10  -5  51 N7          N/A  WCI  -1
LISCO            N/A     18   0  45 E12         N/A  WCI   6
BIG SPRINGS      N/A     17   1  49 NE7         N/A  WCI   8
LEWELLEN         N/A     10  -8  44 NE3         N/A
$$

...OBSERVATIONS IN NORTH CENTRAL NEBRASKA...

CITY           SKY/WX    TMP DP  RH WIND       PRES   REMARKS
VALENTINE      CLEAR      8  -3  61 N8        30.44R WCI  -4
THEDFORD       CLEAR     10  -3  56 N5        30.40R WCI   2
AINSWORTH      CLEAR      6  -2  69 N8        30.44R WCI  -7
O`NEILL        CLEAR      5  -3  71 NW6       30.47S WCI  -6
ORD            CLEAR      8  -6  52 N9        30.46R WCI  -5
BROKEN BOW     CLEAR      7  -7  52 N8        30.42R WCI  -6
BROWNLEE         N/A      3  -8  59 N7          N/A  WCI -10
SPRINGVIEW       N/A      7  -3  64 CALM        N/A
BREWSTER         N/A     15   2  57 N9          N/A  WCI   3
ROSE             N/A     14   6  70 N6          N/A  WCI   5
NEWPORT          N/A     14   5  69 NW5         N/A  WCI   6
SARGENT          N/A     10  -3  55 CALM        N/A
COMSTOCK         N/A     12  -3  49 N6          N/A  WCI   3
CHAMBERS         N/A      6 -11  46 N3          N/A
EWING            N/A      6  -1  71 CALM        N/A
$$

...OBSERVATIONS IN SOUTHWEST NEBRASKA AND FAR NORTHEAST COLORADO...

CITY           SKY/WX    TMP DP  RH WIND       PRES   REMARKS
WRAY           CLOUDY    18  10  69 CALM      30.30S
IMPERIAL         N/A     16   0  49 NE10      30.33R WCI   4
OGALLALA       PTCLDY    13  -1  53 NE6       30.35R WCI   4
NORTH PLATTE   CLEAR     11  -7  44 N7        30.39R WCI   0
MCCOOK         CLEAR     17  -3  41 NE8       30.39R WCI   7
LEXINGTON      CLEAR     14  -7  39 N8        30.42R WCI   2
PAXTON           N/A     15  -1  49 N5          N/A  WCI   8
BRADY            N/A     13  -6  42 CALM        N/A
GOTHENBURG       N/A     14  -6  41 N3          N/A
CALLAWAY         N/A      9  -4  54 N5          N/A  WCI   1
$$

...NORTH PLATTE AREA...

CITY           SKY/WX    TMP DP  RH WIND       PRES   REMARKS
AIRPORT        CLEAR     11  -7  44 N7        30.39R WCI   0
DOWNTOWN         N/A     13  -6  43 NE3         N/A
$$

...SOME WEATHER OBSERVATIONS FROM AROUND THE REGION...

CITY           SKY/WX    TMP DP  RH WIND       PRES   REMARKS
DENVER         LGT SNOW  14  11  87 E16       30.12R VSB 1   WCI  -2
LARAMIE        CLOUDY     8   0  69 SE20      29.95R WCI -11
CHEYENNE       LGT SNOW   9   4  80 E8        30.08R VSB 1   WCI  -3
SCOTTSBLUFF    MOCLDY    13   3  64 E10       30.29R WCI   0
RAPID CITY     CLEAR      0  -8  69 NW8       30.39S WCI -14
PIERRE         CLEAR      5  -4  66 N6        30.52R WCI  -6
WINNER         FAIR       5  -8  55 N7        30.49R WCI  -7
SIOUX FALLS    CLEAR     -1  -8  72 NW9       30.51R WCI -16
OMAHA          MOCLDY     8   2  76 N10       30.55R WCI  -6
GRAND ISLAND   CLEAR     10  -3  55 N9        30.48R WCI  -3
KANSAS CITY    CLEAR     12  -1  56 N13       30.49R WCI  -3
WICHITA        PTCLDY    21  -4  33 N15       30.46R WCI   8
HAYS           PTCLDY    16  -9  32 NE8       30.43R WCI   5
LIBERAL        CLOUDY    21   5  49 NE9       30.35R WCI  11
GOODLAND       CLOUDY    17   5  59 NE3       30.30R
$$



USA.gov is the U.S. government's official web portal to all federal, state and local government web resources and services.